Time,TemperatureF,DewpointF,PressureIn,WindDirection,WindDirectionDegrees,WindSpeedMPH,WindSpeedGustMPH,Humidity,HourlyPrecipIn,Conditions,Clouds,dailyrainin,SoftwareType,DateUTC
2013-04-09 00:00:00,60.5,53.3,30.13,South,184,0.0,0.0,77,0.00,CLR,,0.00,WeatherDisplay:10.37,2013-04-09 04:00:00,
2013-04-09 00:01:00,60.5,53.6,30.13,South,184,0.0,0.0,78,0.00,CLR,,0.00,WeatherDisplay:10.37,2013-04-09 04:01:00,
2013-04-09 00:06:00,60.2,53.3,30.13,South,184,0.0,0.0,78,0.00,CLR,,0.00,WeatherDisplay:10.37,2013-04-09 04:06:00,
2013-04-09 00:11:00,59.9,53.4,30.13,South,184,0.0,0.0,79,0.00,CLR,,0.00,WeatherDisplay:10.37,2013-04-09 04:11:00,
2013-04-09 00:16:00,59.6,53.4,30.13,South,184,0.0,0.0,80,0.00,CLR,,0.00,WeatherDisplay:10.37,2013-04-09 04:16:00,
2013-04-09 00:21:00,59.5,53.7,30.13,South,184,0.0,0.0,81,0.00,CLR,,0.00,WeatherDisplay:10.37,2013-04-09 04:21:00,
2013-04-09 00:27:00,59.5,54.0,30.13,South,184,0.0,0.0,82,0.00,CLR,,0.00,WeatherDisplay:10.37,2013-04-09 04:27:00,
2013-04-09 00:32:00,59.3,53.8,30.13,South,184,0.0,0.0,82,0.00,CLR,,0.00,WeatherDisplay:10.37,2013-04-09 04:32:00,
2013-04-09 00:37:00,59.2,54.0,30.13,South,184,0.0,0.0,83,0.00,CLR,,0.00,WeatherDisplay:10.37,2013-04-09 04:37:00,
2013-04-09 00:42:00,59.0,53.8,30.13,South,184,0.0,0.0,83,0.00,CLR,,0.00,WeatherDisplay:10.37,2013-04-09 04:42:00,
2013-04-09 00:47:00,58.8,54.0,30.13,South,184,0.0,0.0,84,0.00,CLR,,0.00,WeatherDisplay:10.37,2013-04-09 04:47:00,
2013-04-09 00:52:00,58.7,53.9,30.14,South,184,0.0,0.0,84,0.00,CLR,,0.00,WeatherDisplay:10.37,2013-04-09 04:52:00,
2013-04-09 00:57:00,58.6,54.1,30.13,South,184,0.0,0.0,85,0.00,CLR,,0.00,WeatherDisplay:10.37,2013-04-09 04:57:00,
2013-04-09 01:02:00,58.4,53.9,30.13,South,184,0.0,0.0,85,0.00,CLR,,0.00,WeatherDisplay:10.37,2013-04-09 05:02:00,
2013-04-09 01:07:00,58.4,54.2,30.13,South,184,0.0,0.0,86,0.00,CLR,,0.00,WeatherDisplay:10.37,2013-04-09 05:07:00,
2013-04-09 01:12:00,58.2,54.0,30.14,South,184,0.0,0.0,86,0.00,CLR,,0.00,WeatherDisplay:10.37,2013-04-09 05:12:00,
2013-04-09 01:17:00,58.1,54.2,30.13,South,184,0.0,0.0,87,0.00,CLR,,0.00,WeatherDisplay:10.37,2013-04-09 05:17:00,
2013-04-09 01:22:00,58.1,54.6,30.13,South,184,0.0,0.0,88,0.00,CLR,,0.00,WeatherDisplay:10.37,2013-04-09 05:22:00,
2013-04-09 01:27:00,58.0,54.5,30.13,South,184,0.0,0.0,88,0.00,CLR,,0.00,WeatherDisplay:10.37,2013-04-09 05:27:00,
2013-04-09 01:32:00,57.8,54.3,30.13,South,184,0.0,0.0,88,0.00,CLR,,0.00,WeatherDisplay:10.37,2013-04-09 05:32:00,
2013-04-09 01:37:00,57.8,54.3,30.14,South,184,0.0,0.0,88,0.00,CLR,,0.00,WeatherDisplay:10.37,2013-04-09 05:37:00,
2013-04-09 01:42:00,57.8,54.3,30.13,South,184,0.0,0.0,88,0.00,CLR,,0.00,WeatherDisplay:10.37,2013-04-09 05:42:00,
2013-04-09 01:47:00,57.7,54.2,30.14,South,184,0.0,0.0,88,0.00,CLR,,0.00,WeatherDisplay:10.37,2013-04-09 05:47:00,
2013-04-09 01:52:00,58.1,55.8,30.13,South,184,0.0,0.0,92,0.00,CLR,,0.00,WeatherDisplay:10.37,2013-04-09 05:52:00,
2013-04-09 01:57:00,58.9,56.6,30.14,South,184,0.0,0.0,92,0.00,CLR,,0.00,WeatherDisplay:10.37,2013-04-09 05:57:00,
2013-04-09 02:02:00,58.9,55.4,30.13,South,184,0.0,0.0,88,0.00,CLR,,0.00,WeatherDisplay:10.37,2013-04-09 06:02:00,
2013-04-09 02:07:00,58.6,54.4,30.13,South,184,0.0,0.0,86,0.00,CLR,,0.00,WeatherDisplay:10.37,2013-04-09 06:07:00,
2013-04-09 02:12:00,58.2,54.3,30.13,South,184,0.0,0.0,87,0.00,CLR,,0.00,WeatherDisplay:10.37,2013-04-09 06:12:00,
2013-04-09 02:17:00,57.9,54.4,30.13,South,184,0.0,0.0,88,0.00,CLR,,0.00,WeatherDisplay:10.37,2013-04-09 06:17:00,
2013-04-09 02:22:00,57.5,54.3,30.13,South,184,0.0,0.0,89,0.00,CLR,,0.00,WeatherDisplay:10.37,2013-04-09 06:22:00,
2013-04-09 02:27:00,57.3,54.1,30.13,South,184,0.0,0.0,89,0.00,CLR,,0.00,WeatherDisplay:10.37,2013-04-09 06:27:00,
2013-04-09 02:32:00,57.6,56.2,30.12,South,184,0.0,0.0,95,0.00,CLR,,0.00,WeatherDisplay:10.37,2013-04-09 06:32:00,
2013-04-09 02:38:00,58.7,57.3,30.13,South,184,0.0,0.0,95,0.00,CLR,,0.00,WeatherDisplay:10.37,2013-04-09 06:38:00,
2013-04-09 02:43:00,58.7,55.5,30.13,South,184,0.0,0.0,89,0.00,CLR,,0.00,WeatherDisplay:10.37,2013-04-09 06:43:00,
2013-04-09 02:48:00,58.3,54.8,30.13,South,184,0.0,0.0,88,0.00,CLR,,0.00,WeatherDisplay:10.37,2013-04-09 06:48:00,
2013-04-09 02:53:00,57.8,54.6,30.13,South,184,0.0,0.0,89,0.00,CLR,,0.00,WeatherDisplay:10.37,2013-04-09 06:53:00,
2013-04-09 02:58:00,57.4,54.2,30.12,South,184,0.0,0.0,89,0.00,CLR,,0.00,WeatherDisplay:10.37,2013-04-09 06:58:00,
2013-04-09 03:03:00,57.2,54.6,30.12,South,184,0.0,0.0,91,0.00,CLR,,0.00,WeatherDisplay:10.37,2013-04-09 07:03:00,
2013-04-09 03:08:00,56.9,54.6,30.12,South,184,0.0,0.0,92,0.00,CLR,,0.00,WeatherDisplay:10.37,2013-04-09 07:08:00,
2013-04-09 03:13:00,56.8,54.5,30.12,South,184,0.0,0.0,92,0.00,CLR,,0.00,WeatherDisplay:10.37,2013-04-09 07:13:00,
2013-04-09 03:18:00,56.7,54.7,30.12,South,184,0.0,0.0,93,0.00,CLR,,0.00,WeatherDisplay:10.37,2013-04-09 07:18:00,
2013-04-09 03:23:00,56.6,54.6,30.12,South,184,0.0,0.0,93,0.00,CLR,,0.00,WeatherDisplay:10.37,2013-04-09 07:23:00,
2013-04-09 03:28:00,56.7,55.6,30.12,South,184,0.0,0.0,96,0.00,CLR,,0.00,WeatherDisplay:10.37,2013-04-09 07:28:00,
2013-04-09 03:33:00,57.2,56.4,30.12,South,184,0.0,0.0,97,0.00,CLR,,0.00,WeatherDisplay:10.37,2013-04-09 07:33:00,
2013-04-09 03:38:00,57.7,56.6,30.13,South,184,0.0,0.0,96,0.00,CLR,,0.00,WeatherDisplay:10.37,2013-04-09 07:38:00,
2013-04-09 03:43:00,57.8,55.8,30.13,South,184,0.0,0.0,93,0.00,CLR,,0.00,WeatherDisplay:10.37,2013-04-09 07:43:00,
2013-04-09 03:48:00,57.8,55.5,30.13,South,184,0.0,0.0,92,0.00,CLR,,0.00,WeatherDisplay:10.37,2013-04-09 07:48:00,
2013-04-09 03:53:00,57.9,55.6,30.13,SSE,151,0.4,0.5,92,0.00,CLR,,0.00,WeatherDisplay:10.37,2013-04-09 07:53:00,
2013-04-09 03:58:00,58.2,55.6,30.13,SSE,151,0.0,0.0,91,0.00,CLR,,0.00,WeatherDisplay:10.37,2013-04-09 07:58:00,
2013-04-09 04:03:00,58.1,55.2,30.13,SSE,151,0.0,0.0,90,0.00,CLR,,0.00,WeatherDisplay:10.37,2013-04-09 08:03:00,
2013-04-09 04:08:00,57.9,55.0,30.13,SSE,151,0.0,0.0,90,0.00,CLR,,0.00,WeatherDisplay:10.37,2013-04-09 08:08:00,
2013-04-09 04:13:00,57.6,54.7,30.13,SSE,151,0.0,0.0,90,0.00,CLR,,0.00,WeatherDisplay:10.37,2013-04-09 08:13:00,
2013-04-09 04:18:00,57.1,54.5,30.14,SSE,151,0.0,0.0,91,0.00,CLR,,0.00,WeatherDisplay:10.37,2013-04-09 08:18:00,
2013-04-09 04:23:00,56.9,54.9,30.14,SSE,151,0.0,0.0,93,0.00,CLR,,0.00,WeatherDisplay:10.37,2013-04-09 08:23:00,
2013-04-09 04:28:00,56.6,54.3,30.14,SSE,151,0.0,0.0,92,0.00,CLR,,0.00,WeatherDisplay:10.37,2013-04-09 08:28:00,
2013-04-09 04:33:00,56.2,54.5,30.14,SSE,151,0.0,0.0,94,0.00,CLR,,0.00,WeatherDisplay:10.37,2013-04-09 08:33:00,
2013-04-09 04:38:00,56.1,54.7,30.14,SSE,151,0.0,0.0,95,0.00,CLR,,0.00,WeatherDisplay:10.37,2013-04-09 08:38:00,
2013-04-09 04:43:00,56.0,54.6,30.14,SSE,151,0.0,0.0,95,0.00,CLR,,0.00,WeatherDisplay:10.37,2013-04-09 08:43:00,
2013-04-09 04:48:00,55.8,54.4,30.14,SSE,151,0.0,0.0,95,0.00,CLR,,0.00,WeatherDisplay:10.37,2013-04-09 08:48:00,
2013-04-09 04:53:00,55.8,54.7,30.14,SSE,151,0.0,0.0,96,0.00,CLR,,0.00,WeatherDisplay:10.37,2013-04-09 08:53:00,
2013-04-09 04:58:00,55.7,54.6,30.14,SSE,151,0.0,0.0,96,0.00,CLR,,0.00,WeatherDisplay:10.37,2013-04-09 08:58:00,
2013-04-09 05:03:00,55.6,54.5,30.15,SSE,151,0.0,0.0,96,0.00,CLR,,0.00,WeatherDisplay:10.37,2013-04-09 09:03:00,
2013-04-09 05:08:00,55.5,54.4,30.15,SSE,151,0.0,0.0,96,0.00,CLR,,0.00,WeatherDisplay:10.37,2013-04-09 09:08:00,
2013-04-09 05:13:00,55.5,54.4,30.15,SSE,151,0.0,0.0,96,0.00,CLR,,0.00,WeatherDisplay:10.37,2013-04-09 09:13:00,
2013-04-09 05:18:00,55.3,54.2,30.16,SSE,151,0.0,0.0,96,0.00,CLR,,0.00,WeatherDisplay:10.37,2013-04-09 09:18:00,
2013-04-09 05:23:00,55.1,54.0,30.16,SSE,151,0.0,0.0,96,0.00,CLR,,0.00,WeatherDisplay:10.37,2013-04-09 09:23:00,
2013-04-09 05:28:00,54.9,54.1,30.16,SSE,151,0.0,0.0,97,0.00,CLR,,0.00,WeatherDisplay:10.37,2013-04-09 09:28:00,
2013-04-09 05:33:00,55.0,54.2,30.15,SSE,151,0.0,0.0,97,0.00,CLR,,0.00,WeatherDisplay:10.37,2013-04-09 09:33:00,
2013-04-09 05:38:00,55.0,54.2,30.16,SSE,151,0.0,0.0,97,0.00,CLR,,0.00,WeatherDisplay:10.37,2013-04-09 09:38:00,
2013-04-09 05:43:00,54.9,54.1,30.16,SSE,151,0.0,0.0,97,0.00,CLR,,0.00,WeatherDisplay:10.37,2013-04-09 09:43:00,
2013-04-09 05:48:00,54.7,53.9,30.17,SSE,151,0.0,0.0,97,0.00,CLR,,0.00,WeatherDisplay:10.37,2013-04-09 09:48:00,
2013-04-09 05:53:00,54.6,54.0,30.17,SSE,151,0.0,0.0,98,0.00,CLR,,0.00,WeatherDisplay:10.37,2013-04-09 09:53:00,
2013-04-09 05:59:00,54.5,54.2,30.17,SSE,151,0.0,0.0,99,0.00,CLR,,0.00,WeatherDisplay:10.37,2013-04-09 09:59:00,
2013-04-09 06:04:00,55.1,55.1,30.17,SSE,151,0.0,0.0,100,0.00,CLR,,0.00,WeatherDisplay:10.37,2013-04-09 10:04:00,
2013-04-09 06:09:00,55.8,55.8,30.17,SSE,151,0.0,0.0,100,0.00,CLR,,0.00,WeatherDisplay:10.37,2013-04-09 10:09:00,
2013-04-09 06:14:00,55.7,55.1,30.18,SSE,151,0.0,0.0,98,0.00,CLR,,0.00,WeatherDisplay:10.37,2013-04-09 10:14:00,
2013-04-09 06:19:00,55.4,54.8,30.18,SSE,151,0.0,0.0,98,0.00,CLR,,0.00,WeatherDisplay:10.37,2013-04-09 10:19:00,
2013-04-09 06:24:00,55.0,54.4,30.18,SSE,151,0.0,0.0,98,0.00,CLR,,0.00,WeatherDisplay:10.37,2013-04-09 10:24:00,
2013-04-09 06:29:00,54.6,54.0,30.18,SSE,151,0.0,0.0,98,0.00,CLR,,0.00,WeatherDisplay:10.37,2013-04-09 10:29:00,
2013-04-09 06:35:00,54.3,53.7,30.18,SSE,151,0.0,0.0,98,0.00,CLR,,0.00,WeatherDisplay:10.37,2013-04-09 10:35:00,
2013-04-09 06:40:00,54.2,53.6,30.19,SSE,151,0.0,0.0,98,0.00,CLR,,0.00,WeatherDisplay:10.37,2013-04-09 10:40:00,
2013-04-09 06:45:00,54.1,53.5,30.18,SSE,151,0.0,0.0,98,0.00,CLR,,0.00,WeatherDisplay:10.37,2013-04-09 10:45:00,
2013-04-09 06:50:00,53.9,53.3,30.19,SSE,151,0.0,0.0,98,0.00,CLR,,0.00,WeatherDisplay:10.37,2013-04-09 10:50:00,
2013-04-09 06:55:00,53.7,53.4,30.19,SSE,151,0.0,0.0,99,0.00,CLR,,0.00,WeatherDisplay:10.37,2013-04-09 10:55:00,
2013-04-09 07:01:00,53.8,53.5,30.19,SSE,151,0.0,0.0,99,0.00,CLR,,0.00,WeatherDisplay:10.37,2013-04-09 11:01:00,
2013-04-09 07:06:00,53.6,53.3,30.19,SSE,151,0.0,0.0,99,0.00,CLR,,0.00,WeatherDisplay:10.37,2013-04-09 11:06:00,
2013-04-09 07:11:00,53.5,53.2,30.19,SSE,151,0.0,0.0,99,0.00,CLR,,0.00,WeatherDisplay:10.37,2013-04-09 11:11:00,
2013-04-09 07:16:00,53.5,53.2,30.20,SSE,151,0.0,0.0,99,0.00,CLR,,0.00,WeatherDisplay:10.37,2013-04-09 11:16:00,
2013-04-09 07:21:00,53.6,53.6,30.20,SSE,151,0.0,0.0,100,0.00,CLR,,0.00,WeatherDisplay:10.37,2013-04-09 11:21:00,
2013-04-09 07:26:00,53.8,53.8,30.20,SSE,151,0.0,0.0,100,0.00,CLR,,0.00,WeatherDisplay:10.37,2013-04-09 11:26:00,
2013-04-09 07:31:00,54.1,53.8,30.20,SSE,151,0.0,0.0,99,0.00,CLR,,0.00,WeatherDisplay:10.37,2013-04-09 11:31:00,
2013-04-09 07:36:00,54.1,53.8,30.20,SSE,151,0.0,0.0,99,0.00,CLR,,0.00,WeatherDisplay:10.37,2013-04-09 11:36:00,
2013-04-09 07:41:00,54.3,54.0,30.21,SSE,151,0.0,0.0,99,0.00,CLR,,0.00,WeatherDisplay:10.37,2013-04-09 11:41:00,
2013-04-09 07:46:00,54.6,54.3,30.21,SSE,151,0.0,0.0,99,0.00,CLR,,0.00,WeatherDisplay:10.37,2013-04-09 11:46:00,
2013-04-09 07:51:00,54.8,54.5,30.21,SSE,151,0.0,0.0,99,0.00,CLR,,0.00,WeatherDisplay:10.37,2013-04-09 11:51:00,
2013-04-09 07:56:00,55.0,54.7,30.21,SSE,151,0.0,0.0,99,0.00,CLR,,0.00,WeatherDisplay:10.37,2013-04-09 11:56:00,
2013-04-09 08:01:00,55.1,54.8,30.21,SSE,151,0.0,0.0,99,0.00,CLR,,0.00,WeatherDisplay:10.37,2013-04-09 12:01:00,
2013-04-09 08:07:00,55.4,55.4,30.21,SSE,151,0.0,0.0,100,0.00,CLR,,0.00,WeatherDisplay:10.37,2013-04-09 12:07:00,
2013-04-09 08:12:00,57.0,57.0,30.21,SSE,151,0.0,0.0,100,0.00,CLR,,0.00,WeatherDisplay:10.37,2013-04-09 12:12:00,
2013-04-09 08:17:00,58.2,58.2,30.21,SSE,151,0.0,0.0,100,0.00,CLR,,0.00,WeatherDisplay:10.37,2013-04-09 12:17:00,
2013-04-09 08:22:00,59.0,59.0,30.22,SSE,151,0.0,0.0,100,0.00,CLR,,0.00,WeatherDisplay:10.37,2013-04-09 12:22:00,
2013-04-09 08:27:00,59.3,59.3,30.22,SSE,151,0.0,0.0,100,0.00,CLR,,0.00,WeatherDisplay:10.37,2013-04-09 12:27:00,
2013-04-09 08:32:00,60.0,59.7,30.22,SSE,151,0.0,0.0,99,0.00,CLR,,0.00,WeatherDisplay:10.37,2013-04-09 12:32:00,
2013-04-09 08:37:00,61.0,60.7,30.22,SSE,151,0.0,0.0,99,0.00,CLR,,0.00,WeatherDisplay:10.37,2013-04-09 12:37:00,
2013-04-09 08:42:00,62.0,60.8,30.22,SSE,151,0.0,0.0,96,0.00,CLR,,0.00,WeatherDisplay:10.37,2013-04-09 12:42:00,
2013-04-09 08:47:00,62.2,60.2,30.22,SSE,151,0.0,0.0,93,0.00,CLR,,0.00,WeatherDisplay:10.37,2013-04-09 12:47:00,
2013-04-09 08:52:00,62.5,59.8,30.22,SSE,151,0.0,0.0,91,0.00,CLR,,0.00,WeatherDisplay:10.37,2013-04-09 12:52:00,
2013-04-09 08:57:00,62.6,59.0,30.22,SSE,151,0.0,0.0,88,0.00,CLR,,0.00,WeatherDisplay:10.37,2013-04-09 12:57:00,
2013-04-09 09:02:00,62.9,58.3,30.22,SSE,151,0.0,0.0,85,0.00,CLR,,0.00,WeatherDisplay:10.37,2013-04-09 13:02:00,
2013-04-09 09:07:00,63.3,58.0,30.22,SSE,151,0.0,0.0,83,0.00,CLR,,0.00,WeatherDisplay:10.37,2013-04-09 13:07:00,
2013-04-09 09:12:00,63.7,58.1,30.22,SSE,151,0.0,0.0,82,0.00,CLR,,0.00,WeatherDisplay:10.37,2013-04-09 13:12:00,
2013-04-09 09:17:00,63.7,56.7,30.22,SSE,151,0.0,0.0,78,0.00,CLR,,0.00,WeatherDisplay:10.37,2013-04-09 13:17:00,
2013-04-09 09:23:00,63.8,56.8,30.22,SSE,151,0.0,0.0,78,0.00,CLR,,0.00,WeatherDisplay:10.37,2013-04-09 13:23:00,
2013-04-09 09:28:00,63.9,57.3,30.22,SSE,151,0.0,0.0,79,0.00,CLR,,0.00,WeatherDisplay:10.37,2013-04-09 13:28:00,
2013-04-09 09:33:00,63.8,57.2,30.22,SSE,151,0.0,0.0,79,0.00,CLR,,0.00,WeatherDisplay:10.37,2013-04-09 13:33:00,
2013-04-09 09:38:00,64.2,57.2,30.22,SSE,151,0.0,0.0,78,0.00,CLR,,0.00,WeatherDisplay:10.37,2013-04-09 13:38:00,
2013-04-09 09:43:00,64.8,57.4,30.22,SSE,151,0.0,0.0,77,0.00,CLR,,0.00,WeatherDisplay:10.37,2013-04-09 13:43:00,
2013-04-09 09:48:00,65.1,56.2,30.22,SSE,151,0.0,0.0,73,0.00,CLR,,0.00,WeatherDisplay:10.37,2013-04-09 13:48:00,
2013-04-09 09:53:00,65.4,56.5,30.22,SSE,151,0.0,0.0,73,0.00,CLR,,0.00,WeatherDisplay:10.37,2013-04-09 13:53:00,
2013-04-09 09:58:00,65.7,56.4,30.22,SSE,151,0.0,0.0,72,0.00,CLR,,0.00,WeatherDisplay:10.37,2013-04-09 13:58:00,
2013-04-09 10:03:00,65.9,56.2,30.22,SSE,151,0.0,0.0,71,0.00,CLR,,0.00,WeatherDisplay:10.37,2013-04-09 14:03:00,
2013-04-09 10:08:00,66.3,56.2,30.22,SSE,154,3.5,3.5,70,0.00,CLR,,0.00,WeatherDisplay:10.37,2013-04-09 14:08:00,
2013-04-09 10:13:00,66.8,56.3,30.22,SSE,154,0.0,0.0,69,0.00,CLR,,0.00,WeatherDisplay:10.37,2013-04-09 14:13:00,
2013-04-09 10:18:00,67.3,56.4,30.22,SSE,154,0.0,0.0,68,0.00,CLR,,0.00,WeatherDisplay:10.37,2013-04-09 14:18:00,
2013-04-09 10:23:00,67.9,56.1,30.21,SSE,154,0.0,0.0,66,0.00,CLR,,0.00,WeatherDisplay:10.37,2013-04-09 14:23:00,
2013-04-09 10:28:00,68.2,56.4,30.21,SSE,154,0.0,0.0,66,0.00,CLR,,0.00,WeatherDisplay:10.37,2013-04-09 14:28:00,
2013-04-09 10:33:00,68.4,56.2,30.21,SSE,154,0.0,0.0,65,0.00,CLR,,0.00,WeatherDisplay:10.37,2013-04-09 14:33:00,
2013-04-09 10:38:00,68.8,55.7,30.21,SSE,154,0.0,0.0,63,0.00,CLR,,0.00,WeatherDisplay:10.37,2013-04-09 14:38:00,
2013-04-09 10:43:00,69.3,56.2,30.22,SSE,154,0.0,0.0,63,0.00,CLR,,0.00,WeatherDisplay:10.37,2013-04-09 14:43:00,
2013-04-09 10:49:00,69.6,56.0,30.22,SSE,154,0.0,0.0,62,0.00,CLR,,0.00,WeatherDisplay:10.37,2013-04-09 14:49:00,
2013-04-09 10:54:00,70.0,56.4,30.22,SSE,154,0.0,0.0,62,0.00,CLR,,0.00,WeatherDisplay:10.37,2013-04-09 14:54:00,
2013-04-09 10:59:00,70.5,55.9,30.22,SW,217,0.0,0.0,60,0.00,CLR,,0.00,WeatherDisplay:10.37,2013-04-09 14:59:00,
2013-04-09 11:04:00,70.9,56.3,30.22,SW,217,0.0,0.0,60,0.00,CLR,,0.00,WeatherDisplay:10.37,2013-04-09 15:04:00,
2013-04-09 11:09:00,71.4,57.7,30.22,East,100,0.0,0.0,62,0.00,CLR,,0.00,WeatherDisplay:10.37,2013-04-09 15:09:00,
2013-04-09 11:14:00,72.3,58.1,30.22,SW,223,0.0,0.0,61,0.00,CLR,,0.00,WeatherDisplay:10.37,2013-04-09 15:14:00,
2013-04-09 11:19:00,73.2,57.1,30.22,SW,223,0.0,0.0,57,0.00,CLR,,0.00,WeatherDisplay:10.37,2013-04-09 15:19:00,
2013-04-09 11:25:00,73.6,56.9,30.21,SW,223,0.0,0.0,56,0.00,CLR,,0.00,WeatherDisplay:10.37,2013-04-09 15:25:00,
2013-04-09 11:30:00,74.0,57.3,30.21,East,93,3.5,3.5,56,0.00,CLR,,0.00,WeatherDisplay:10.37,2013-04-09 15:30:00,
2013-04-09 11:35:00,74.3,57.6,30.21,WSW,251,0.0,0.0,56,0.00,CLR,,0.00,WeatherDisplay:10.37,2013-04-09 15:35:00,
2013-04-09 11:40:00,74.6,57.9,30.21,SW,227,0.0,0.0,56,0.00,CLR,,0.00,WeatherDisplay:10.37,2013-04-09 15:40:00,
2013-04-09 11:45:00,75.1,57.8,30.21,ESE,106,0.4,0.4,55,0.00,CLR,,0.00,WeatherDisplay:10.37,2013-04-09 15:45:00,
2013-04-09 11:50:00,75.6,57.3,30.21,WSW,241,3.5,3.5,53,0.00,CLR,,0.00,WeatherDisplay:10.37,2013-04-09 15:50:00,
2013-04-09 11:55:00,76.1,57.2,30.21,SE,126,0.0,0.0,52,0.00,CLR,,0.00,WeatherDisplay:10.37,2013-04-09 15:55:00,
2013-04-09 12:00:00,76.7,57.7,30.21,SW,223,9.2,9.2,52,0.00,CLR,,0.00,WeatherDisplay:10.37,2013-04-09 16:00:00,
2013-04-09 12:05:00,77.7,58.1,30.21,WSW,237,6.9,6.9,51,0.00,CLR,,0.00,WeatherDisplay:10.37,2013-04-09 16:05:00,
2013-04-09 12:10:00,78.3,57.6,30.20,SW,224,4.6,4.6,49,0.00,CLR,,0.00,WeatherDisplay:10.37,2013-04-09 16:10:00,
2013-04-09 12:15:00,78.9,57.5,30.20,SE,144,5.8,5.8,48,0.00,CLR,,0.00,WeatherDisplay:10.37,2013-04-09 16:15:00,
2013-04-09 12:20:00,79.4,56.8,30.20,East,82,1.2,1.2,46,0.00,CLR,,0.00,WeatherDisplay:10.37,2013-04-09 16:20:00,
2013-04-09 12:25:00,80.0,57.4,30.20,SSE,165,5.8,5.8,46,0.00,CLR,,0.00,WeatherDisplay:10.37,2013-04-09 16:25:00,
2013-04-09 12:30:00,80.5,56.6,30.20,ESE,117,2.0,2.0,44,0.00,CLR,,0.00,WeatherDisplay:10.37,2013-04-09 16:30:00,
2013-04-09 12:35:00,80.7,56.1,30.20,East,99,5.8,5.8,43,0.00,CLR,,0.00,WeatherDisplay:10.37,2013-04-09 16:35:00,
2013-04-09 12:40:00,80.9,56.3,30.19,SSE,168,0.0,0.0,43,0.00,CLR,,0.00,WeatherDisplay:10.37,2013-04-09 16:40:00,
2013-04-09 12:46:00,81.5,56.2,30.19,ESE,121,5.8,5.8,42,0.00,CLR,,0.00,WeatherDisplay:10.37,2013-04-09 16:46:00,
2013-04-09 12:51:00,81.9,56.6,30.20,SW,234,8.1,8.1,42,0.00,CLR,,0.00,WeatherDisplay:10.37,2013-04-09 16:51:00,
2013-04-09 12:56:00,82.5,55.7,30.19,WSW,240,7.3,7.3,40,0.00,CLR,,0.00,WeatherDisplay:10.37,2013-04-09 16:56:00,
2013-04-09 13:01:00,82.6,55.8,30.19,South,185,9.2,9.2,40,0.00,CLR,,0.00,WeatherDisplay:10.37,2013-04-09 17:01:00,
2013-04-09 13:06:00,82.5,55.7,30.19,ESE,102,3.5,3.5,40,0.00,CLR,,0.00,WeatherDisplay:10.37,2013-04-09 17:06:00,
2013-04-09 13:11:00,82.5,55.7,30.19,South,172,4.6,4.6,40,0.00,CLR,,0.00,WeatherDisplay:10.37,2013-04-09 17:11:00,
2013-04-09 13:16:00,83.1,55.6,30.18,SW,224,6.9,6.9,39,0.00,CLR,,0.00,WeatherDisplay:10.37,2013-04-09 17:16:00,
2013-04-09 13:22:00,83.4,55.8,30.18,SSW,199,10.4,10.4,39,0.00,CLR,,0.00,WeatherDisplay:10.37,2013-04-09 17:22:00,
2013-04-09 13:27:00,83.9,55.6,30.18,SSW,200,5.8,5.8,38,0.00,CLR,,0.00,WeatherDisplay:10.37,2013-04-09 17:27:00,
2013-04-09 13:32:00,83.4,55.1,30.18,SSE,152,9.2,9.2,38,0.00,CLR,,0.00,WeatherDisplay:10.37,2013-04-09 17:32:00,
2013-04-09 13:37:00,82.5,55.7,30.18,WSW,241,9.2,9.2,40,0.00,CLR,,0.00,WeatherDisplay:10.37,2013-04-09 17:37:00,
2013-04-09 13:42:00,83.2,55.7,30.18,South,191,1.6,1.6,39,0.00,CLR,,0.00,WeatherDisplay:10.37,2013-04-09 17:42:00,
2013-04-09 13:47:00,84.1,55.7,30.17,SSE,154,5.8,5.8,38,0.00,CLR,,0.00,WeatherDisplay:10.37,2013-04-09 17:47:00,
2013-04-09 13:52:00,84.5,55.4,30.17,SSE,155,4.6,4.6,37,0.00,CLR,,0.00,WeatherDisplay:10.37,2013-04-09 17:52:00,
2013-04-09 13:58:00,84.6,54.7,30.17,East,100,6.9,6.9,36,0.00,CLR,,0.00,WeatherDisplay:10.37,2013-04-09 17:58:00,
2013-04-09 14:03:00,83.9,55.6,30.17,WSW,256,6.9,6.9,38,0.00,CLR,,0.00,WeatherDisplay:10.37,2013-04-09 18:03:00,
2013-04-09 14:08:00,84.3,55.2,30.17,WSW,248,11.5,11.5,37,0.00,CLR,,0.00,WeatherDisplay:10.37,2013-04-09 18:08:00,
2013-04-09 14:13:00,84.7,54.8,30.17,WSW,258,8.1,8.1,36,0.00,CLR,,0.00,WeatherDisplay:10.37,2013-04-09 18:13:00,
2013-04-09 14:18:00,84.5,56.1,30.17,SSE,168,0.0,0.0,38,0.00,CLR,,0.00,WeatherDisplay:10.37,2013-04-09 18:18:00,
2013-04-09 14:23:00,84.6,56.2,30.16,SSW,210,3.2,3.2,38,0.00,CLR,,0.00,WeatherDisplay:10.37,2013-04-09 18:23:00,
2013-04-09 14:28:00,84.9,54.2,30.16,South,189,5.8,5.8,35,0.00,CLR,,0.00,WeatherDisplay:10.37,2013-04-09 18:28:00,
2013-04-09 14:33:00,84.5,55.4,30.16,SE,127,5.8,5.8,37,0.00,CLR,,0.00,WeatherDisplay:10.37,2013-04-09 18:33:00,
2013-04-09 14:38:00,84.7,55.5,30.16,ESE,116,3.5,3.5,37,0.00,CLR,,0.00,WeatherDisplay:10.37,2013-04-09 18:38:00,
2013-04-09 14:43:00,84.9,55.0,30.16,South,178,5.8,5.8,36,0.00,CLR,,0.00,WeatherDisplay:10.37,2013-04-09 18:43:00,
2013-04-09 14:48:00,84.7,54.8,30.16,SW,222,6.9,6.9,36,0.00,CLR,,0.00,WeatherDisplay:10.37,2013-04-09 18:48:00,
2013-04-09 14:53:00,85.3,55.3,30.16,WSW,243,9.2,9.2,36,0.00,CLR,,0.00,WeatherDisplay:10.37,2013-04-09 18:53:00,
2013-04-09 14:58:00,85.7,54.9,30.16,SE,128,6.9,6.9,35,0.00,CLR,,0.00,WeatherDisplay:10.37,2013-04-09 18:58:00,
2013-04-09 15:03:00,85.8,55.0,30.15,ESE,103,2.3,2.3,35,0.00,CLR,,0.00,WeatherDisplay:10.37,2013-04-09 19:03:00,
2013-04-09 15:08:00,85.9,55.1,30.15,South,181,8.1,8.1,35,0.00,CLR,,0.00,WeatherDisplay:10.37,2013-04-09 19:08:00,
2013-04-09 15:13:00,85.9,54.3,30.14,South,179,6.9,6.9,34,0.00,CLR,,0.00,WeatherDisplay:10.37,2013-04-09 19:13:00,
2013-04-09 15:18:00,85.9,54.3,30.14,SSW,198,7.6,7.6,34,0.00,CLR,,0.00,WeatherDisplay:10.37,2013-04-09 19:18:00,
2013-04-09 15:23:00,86.0,55.2,30.14,WSW,250,6.9,6.9,35,0.00,CLR,,0.00,WeatherDisplay:10.37,2013-04-09 19:23:00,
2013-04-09 15:28:00,86.2,54.5,30.14,East,99,3.5,3.5,34,0.00,CLR,,0.00,WeatherDisplay:10.37,2013-04-09 19:28:00,
2013-04-09 15:33:00,86.3,53.8,30.14,WNW,288,4.6,4.6,33,0.00,CLR,,0.00,WeatherDisplay:10.37,2013-04-09 19:33:00,
2013-04-09 15:38:00,86.5,54.8,30.14,South,172,9.1,9.1,34,0.00,CLR,,0.00,WeatherDisplay:10.37,2013-04-09 19:38:00,
2013-04-09 15:43:00,86.6,54.1,30.14,SSW,199,6.9,6.9,33,0.00,CLR,,0.00,WeatherDisplay:10.37,2013-04-09 19:43:00,
2013-04-09 15:48:00,86.5,54.0,30.14,SSW,195,3.5,3.5,33,0.00,CLR,,0.00,WeatherDisplay:10.37,2013-04-09 19:48:00,
2013-04-09 15:53:00,86.4,53.9,30.13,SSW,192,8.1,8.1,33,0.00,CLR,,0.00,WeatherDisplay:10.37,2013-04-09 19:53:00,
2013-04-09 15:58:00,86.3,53.0,30.13,SE,133,2.3,2.3,32,0.00,CLR,,0.00,WeatherDisplay:10.37,2013-04-09 19:58:00,
2013-04-09 16:03:00,86.2,52.9,30.13,West,265,8.1,8.1,32,0.00,CLR,,0.00,WeatherDisplay:10.37,2013-04-09 20:03:00,
2013-04-09 16:08:00,86.3,53.8,30.12,SSW,200,6.3,6.3,33,0.00,CLR,,0.00,WeatherDisplay:10.37,2013-04-09 20:08:00,
2013-04-09 16:13:00,86.4,53.1,30.12,SE,133,4.6,4.6,32,0.00,CLR,,0.00,WeatherDisplay:10.37,2013-04-09 20:13:00,
2013-04-09 16:18:00,86.3,53.0,30.13,WSW,247,9.2,9.2,32,0.00,CLR,,0.00,WeatherDisplay:10.37,2013-04-09 20:18:00,
2013-04-09 16:23:00,86.0,52.7,30.12,SSE,150,8.1,8.1,32,0.00,CLR,,0.00,WeatherDisplay:10.37,2013-04-09 20:23:00,
2013-04-09 16:29:00,85.8,52.5,30.12,SSE,155,4.6,4.6,32,0.00,CLR,,0.00,WeatherDisplay:10.37,2013-04-09 20:29:00,
2013-04-09 16:34:00,85.8,52.5,30.12,SSW,199,6.9,6.9,32,0.00,CLR,,0.00,WeatherDisplay:10.37,2013-04-09 20:34:00,
2013-04-09 16:39:00,85.5,53.1,30.12,ESE,109,5.8,5.8,33,0.00,CLR,,0.00,WeatherDisplay:10.37,2013-04-09 20:39:00,
2013-04-09 16:45:00,85.4,53.0,30.11,South,186,6.9,6.9,33,0.00,CLR,,0.00,WeatherDisplay:10.37,2013-04-09 20:45:00,
2013-04-09 16:50:00,85.3,53.8,30.11,SSE,167,8.1,8.1,34,0.00,CLR,,0.00,WeatherDisplay:10.37,2013-04-09 20:50:00,
2013-04-09 16:55:00,85.1,53.6,30.12,SW,234,4.1,4.1,34,0.00,CLR,,0.00,WeatherDisplay:10.37,2013-04-09 20:55:00,
2013-04-09 17:00:00,84.7,53.2,30.11,SE,131,5.8,5.8,34,0.00,CLR,,0.00,WeatherDisplay:10.37,2013-04-09 21:00:00,
2013-04-09 17:05:00,84.6,53.9,30.11,South,179,4.2,4.2,35,0.00,CLR,,0.00,WeatherDisplay:10.37,2013-04-09 21:05:00,
2013-04-09 17:10:00,84.5,53.8,30.11,SSE,158,4.6,4.6,35,0.00,CLR,,0.00,WeatherDisplay:10.37,2013-04-09 21:10:00,
2013-04-09 17:15:00,84.4,53.0,30.11,East,93,4.6,4.6,34,0.00,CLR,,0.00,WeatherDisplay:10.37,2013-04-09 21:15:00,
2013-04-09 17:20:00,84.4,53.8,30.11,SW,223,8.1,8.1,35,0.00,CLR,,0.00,WeatherDisplay:10.37,2013-04-09 21:20:00,
2013-04-09 17:25:00,84.4,53.8,30.11,SSE,162,8.1,8.1,35,0.00,CLR,,0.00,WeatherDisplay:10.37,2013-04-09 21:25:00,
2013-04-09 17:30:00,84.5,53.8,30.11,SSW,206,8.1,8.1,35,0.00,CLR,,0.00,WeatherDisplay:10.37,2013-04-09 21:30:00,
2013-04-09 17:35:00,84.3,52.9,30.11,South,179,5.8,5.8,34,0.00,CLR,,0.00,WeatherDisplay:10.37,2013-04-09 21:35:00,
2013-04-09 17:40:00,84.2,53.6,30.11,West,271,2.3,2.3,35,0.00,CLR,,0.00,WeatherDisplay:10.37,2013-04-09 21:40:00,
2013-04-09 17:46:00,84.1,54.3,30.11,WSW,250,9.2,9.2,36,0.00,CLR,,0.00,WeatherDisplay:10.37,2013-04-09 21:46:00,
2013-04-09 17:51:00,83.8,53.2,30.11,ESE,113,5.8,5.8,35,0.00,CLR,,0.00,WeatherDisplay:10.37,2013-04-09 21:51:00,
2013-04-09 17:56:00,83.6,53.8,30.11,ESE,119,3.5,3.5,36,0.00,CLR,,0.00,WeatherDisplay:10.37,2013-04-09 21:56:00,
2013-04-09 18:01:00,83.4,53.6,30.11,SSE,160,1.5,1.5,36,0.00,CLR,,0.00,WeatherDisplay:10.37,2013-04-09 22:01:00,
2013-04-09 18:06:00,83.2,53.5,30.11,SSE,150,5.8,5.8,36,0.00,CLR,,0.00,WeatherDisplay:10.37,2013-04-09 22:06:00,
2013-04-09 18:11:00,83.2,53.5,30.12,West,268,6.9,6.9,36,0.00,CLR,,0.00,WeatherDisplay:10.37,2013-04-09 22:11:00,
2013-04-09 18:16:00,83.0,53.3,30.11,ENE,78,5.8,5.8,36,0.00,CLR,,0.00,WeatherDisplay:10.37,2013-04-09 22:16:00,
2013-04-09 18:21:00,82.7,53.0,30.11,SW,217,5.8,5.8,36,0.00,CLR,,0.00,WeatherDisplay:10.37,2013-04-09 22:21:00,
2013-04-09 18:26:00,82.5,53.6,30.11,South,179,4.5,4.5,37,0.00,CLR,,0.00,WeatherDisplay:10.37,2013-04-09 22:26:00,
2013-04-09 18:32:00,82.1,53.2,30.11,South,185,0.0,0.0,37,0.00,CLR,,0.00,WeatherDisplay:10.37,2013-04-09 22:32:00,
2013-04-09 18:37:00,81.9,53.1,30.11,SSW,209,5.8,5.8,37,0.00,CLR,,0.00,WeatherDisplay:10.37,2013-04-09 22:37:00,
2013-04-09 18:42:00,81.7,53.6,30.11,SE,124,4.6,4.6,38,0.00,CLR,,0.00,WeatherDisplay:10.37,2013-04-09 22:42:00,
2013-04-09 18:47:00,81.5,53.4,30.11,SSW,199,5.8,5.8,38,0.00,CLR,,0.00,WeatherDisplay:10.37,2013-04-09 22:47:00,
2013-04-09 18:52:00,81.5,53.4,30.11,SE,140,3.5,3.5,38,0.00,CLR,,0.00,WeatherDisplay:10.37,2013-04-09 22:52:00,
2013-04-09 18:57:00,81.1,53.1,30.11,SSE,167,0.0,0.0,38,0.00,CLR,,0.00,WeatherDisplay:10.37,2013-04-09 22:57:00,
2013-04-09 19:02:00,80.7,52.7,30.11,SSE,164,3.5,3.5,38,0.00,CLR,,0.00,WeatherDisplay:10.37,2013-04-09 23:02:00,
2013-04-09 19:07:00,80.3,53.1,30.11,SSE,161,3.5,3.5,39,0.00,CLR,,0.00,WeatherDisplay:10.37,2013-04-09 23:07:00,
2013-04-09 19:12:00,80.3,53.8,30.11,SSE,165,6.9,6.9,40,0.00,CLR,,0.00,WeatherDisplay:10.37,2013-04-09 23:12:00,
2013-04-09 19:17:00,80.0,53.5,30.11,South,186,1.2,0.0,40,0.00,CLR,,0.00,WeatherDisplay:10.37,2013-04-09 23:17:00,
2013-04-09 19:22:00,79.7,53.2,30.11,WSW,239,0.0,0.0,40,0.00,CLR,,0.00,WeatherDisplay:10.37,2013-04-09 23:22:00,
2013-04-09 19:28:00,79.2,53.5,30.11,SSE,162,5.8,5.8,41,0.00,CLR,,0.00,WeatherDisplay:10.37,2013-04-09 23:28:00,
2013-04-09 19:33:00,79.0,53.9,30.11,SSE,161,8.1,8.1,42,0.00,CLR,,0.00,WeatherDisplay:10.37,2013-04-09 23:33:00,
2013-04-09 19:38:00,78.7,53.7,30.11,SW,217,2.1,2.1,42,0.00,CLR,,0.00,WeatherDisplay:10.37,2013-04-09 23:38:00,
2013-04-09 19:43:00,78.3,54.0,30.11,SSE,155,3.5,3.5,43,0.00,CLR,,0.00,WeatherDisplay:10.37,2013-04-09 23:43:00,
2013-04-09 19:48:00,78.5,55.4,30.11,SE,136,2.3,0.0,45,0.00,CLR,,0.00,WeatherDisplay:10.37,2013-04-09 23:48:00,
2013-04-09 19:53:00,79.1,54.7,30.11,SE,136,0.0,0.0,43,0.00,CLR,,0.00,WeatherDisplay:10.37,2013-04-09 23:53:00,
2013-04-09 19:58:00,79.2,54.1,30.11,SE,136,0.0,0.0,42,0.00,CLR,,0.00,WeatherDisplay:10.37,2013-04-09 23:58:00,
2013-04-09 20:03:00,78.7,54.3,30.11,SE,136,0.0,0.0,43,0.00,CLR,,0.00,WeatherDisplay:10.37,2013-04-10 00:03:00,
2013-04-09 20:08:00,78.2,53.9,30.11,SE,136,0.0,0.0,43,0.00,CLR,,0.00,WeatherDisplay:10.37,2013-04-10 00:08:00,
2013-04-09 20:13:00,77.8,54.1,30.11,SE,136,0.0,0.0,44,0.00,CLR,,0.00,WeatherDisplay:10.37,2013-04-10 00:13:00,
2013-04-09 20:18:00,77.2,54.2,30.11,SE,136,0.0,0.0,45,0.00,CLR,,0.00,WeatherDisplay:10.37,2013-04-10 00:18:00,
2013-04-09 20:23:00,76.7,54.4,30.11,SE,136,0.0,0.0,46,0.00,CLR,,0.00,WeatherDisplay:10.37,2013-04-10 00:23:00,
2013-04-09 20:28:00,76.1,54.4,30.11,SE,136,0.0,0.0,47,0.00,CLR,,0.00,WeatherDisplay:10.37,2013-04-10 00:28:00,
2013-04-09 20:33:00,75.6,54.5,30.11,SE,136,0.0,0.0,48,0.00,CLR,,0.00,WeatherDisplay:10.37,2013-04-10 00:33:00,
2013-04-09 20:38:00,75.2,54.2,30.11,SE,136,0.0,0.0,48,0.00,CLR,,0.00,WeatherDisplay:10.37,2013-04-10 00:38:00,
2013-04-09 20:43:00,74.7,54.8,30.12,SE,136,0.0,0.0,50,0.00,CLR,,0.00,WeatherDisplay:10.37,2013-04-10 00:43:00,
2013-04-09 20:48:00,74.3,54.5,30.12,SE,136,0.0,0.0,50,0.00,CLR,,0.00,WeatherDisplay:10.37,2013-04-10 00:48:00,
2013-04-09 20:53:00,74.0,54.7,30.12,SE,136,0.0,0.0,51,0.00,CLR,,0.00,WeatherDisplay:10.37,2013-04-10 00:53:00,
2013-04-09 20:58:00,73.6,54.9,30.12,SE,136,0.0,0.0,52,0.00,CLR,,0.00,WeatherDisplay:10.37,2013-04-10 00:58:00,
2013-04-09 21:03:00,73.2,55.0,30.12,SE,136,0.0,0.0,53,0.00,CLR,,0.00,WeatherDisplay:10.37,2013-04-10 01:03:00,
2013-04-09 21:08:00,72.9,55.3,30.12,SE,136,0.0,0.0,54,0.00,CLR,,0.00,WeatherDisplay:10.37,2013-04-10 01:08:00,
2013-04-09 21:13:00,72.7,55.1,30.12,SE,136,0.0,0.0,54,0.00,CLR,,0.00,WeatherDisplay:10.37,2013-04-10 01:13:00,
2013-04-09 21:18:00,72.4,55.3,30.12,SE,136,0.0,0.0,55,0.00,CLR,,0.00,WeatherDisplay:10.37,2013-04-10 01:18:00,
2013-04-09 21:23:00,72.2,55.1,30.12,SE,136,0.0,0.0,55,0.00,CLR,,0.00,WeatherDisplay:10.37,2013-04-10 01:23:00,
2013-04-09 21:29:00,71.9,55.3,30.12,SE,136,0.0,0.0,56,0.00,CLR,,0.00,WeatherDisplay:10.37,2013-04-10 01:29:00,
2013-04-09 21:34:00,71.7,56.1,30.12,SE,136,0.0,0.0,58,0.00,CLR,,0.00,WeatherDisplay:10.37,2013-04-10 01:34:00,
2013-04-09 21:39:00,72.3,59.0,30.12,SE,136,0.0,0.0,63,0.00,CLR,,0.00,WeatherDisplay:10.37,2013-04-10 01:39:00,
2013-04-09 21:44:00,73.1,58.4,30.12,SE,136,0.0,0.0,60,0.00,CLR,,0.00,WeatherDisplay:10.37,2013-04-10 01:44:00,
2013-04-09 21:49:00,73.3,56.7,30.12,SE,136,0.0,0.0,56,0.00,CLR,,0.00,WeatherDisplay:10.37,2013-04-10 01:49:00,
2013-04-09 21:54:00,72.6,56.0,30.12,SE,136,0.0,0.0,56,0.00,CLR,,0.00,WeatherDisplay:10.37,2013-04-10 01:54:00,
2013-04-09 21:59:00,72.0,55.9,30.12,SE,136,0.0,0.0,57,0.00,CLR,,0.00,WeatherDisplay:10.37,2013-04-10 01:59:00,
2013-04-09 22:04:00,71.5,55.9,30.12,SE,136,0.0,0.0,58,0.00,CLR,,0.00,WeatherDisplay:10.37,2013-04-10 02:04:00,
2013-04-09 22:09:00,71.2,56.1,30.12,SE,136,0.0,0.0,59,0.00,CLR,,0.00,WeatherDisplay:10.37,2013-04-10 02:09:00,
2013-04-09 22:14:00,70.8,56.2,30.12,SE,136,0.0,0.0,60,0.00,CLR,,0.00,WeatherDisplay:10.37,2013-04-10 02:14:00,
2013-04-09 22:19:00,70.5,55.9,30.12,SE,136,0.0,0.0,60,0.00,CLR,,0.00,WeatherDisplay:10.37,2013-04-10 02:19:00,
2013-04-09 22:24:00,70.3,56.2,30.12,SE,136,0.0,0.0,61,0.00,CLR,,0.00,WeatherDisplay:10.37,2013-04-10 02:24:00,
2013-04-09 22:29:00,70.0,56.4,30.11,SE,136,0.0,0.0,62,0.00,CLR,,0.00,WeatherDisplay:10.37,2013-04-10 02:29:00,
2013-04-09 22:34:00,69.7,56.1,30.11,SE,136,0.0,0.0,62,0.00,CLR,,0.00,WeatherDisplay:10.37,2013-04-10 02:34:00,
2013-04-09 22:39:00,69.3,56.2,30.11,SE,136,0.0,0.0,63,0.00,CLR,,0.00,WeatherDisplay:10.37,2013-04-10 02:39:00,
2013-04-09 22:44:00,69.0,56.7,30.11,SE,136,0.0,0.0,65,0.00,CLR,,0.00,WeatherDisplay:10.37,2013-04-10 02:44:00,
2013-04-09 22:49:00,68.8,56.1,30.11,SE,136,0.0,0.0,64,0.00,CLR,,0.00,WeatherDisplay:10.37,2013-04-10 02:49:00,
2013-04-09 22:54:00,68.6,56.4,30.11,SE,136,0.0,0.0,65,0.00,CLR,,0.00,WeatherDisplay:10.37,2013-04-10 02:54:00,
2013-04-09 22:59:00,68.5,56.7,30.11,SE,136,0.0,0.0,66,0.00,CLR,,0.00,WeatherDisplay:10.37,2013-04-10 02:59:00,
2013-04-09 23:04:00,68.3,56.5,30.11,SE,136,0.0,0.0,66,0.00,CLR,,0.00,WeatherDisplay:10.37,2013-04-10 03:04:00,
2013-04-09 23:09:00,68.1,56.7,30.11,SE,136,0.0,0.0,67,0.00,CLR,,0.00,WeatherDisplay:10.37,2013-04-10 03:09:00,
2013-04-09 23:14:00,67.9,56.5,30.12,SE,136,0.0,0.0,67,0.00,CLR,,0.00,WeatherDisplay:10.37,2013-04-10 03:14:00,
2013-04-09 23:19:00,67.8,56.9,30.11,SE,136,0.0,0.0,68,0.00,CLR,,0.00,WeatherDisplay:10.37,2013-04-10 03:19:00,
2013-04-09 23:24:00,67.2,57.1,30.11,SE,136,0.0,0.0,70,0.00,CLR,,0.00,WeatherDisplay:10.37,2013-04-10 03:24:00,
2013-04-09 23:29:00,66.9,57.2,30.12,SE,136,0.0,0.0,71,0.00,CLR,,0.00,WeatherDisplay:10.37,2013-04-10 03:29:00,
2013-04-09 23:34:00,66.8,57.5,30.12,SE,136,0.0,0.0,72,0.00,CLR,,0.00,WeatherDisplay:10.37,2013-04-10 03:34:00,
2013-04-09 23:39:00,66.5,57.2,30.11,SE,136,0.0,0.0,72,0.00,CLR,,0.00,WeatherDisplay:10.37,2013-04-10 03:39:00,
2013-04-09 23:44:00,66.3,57.4,30.11,SE,136,0.0,0.0,73,0.00,CLR,,0.00,WeatherDisplay:10.37,2013-04-10 03:44:00,
2013-04-09 23:49:00,66.1,57.6,30.12,SE,136,0.0,0.0,74,0.00,CLR,,0.00,WeatherDisplay:10.37,2013-04-10 03:49:00,
2013-04-09 23:54:00,65.9,57.4,30.12,SE,136,0.0,0.0,74,0.00,CLR,,0.00,WeatherDisplay:10.37,2013-04-10 03:54:00,
2013-04-09 23:59:00,65.7,57.6,30.11,SE,136,0.0,0.0,75,0.00,CLR,,0.00,WeatherDisplay:10.37,2013-04-10 03:59:00,